Probability
0 0 0 0 0 0 0 0 0 0 0 0 0 0 0 0 0 0 0 0 0 0 0 0 0 0 0 0 0 0 0 0 0 0 0 0 0 0
0 0 0 0 0 0 0 0 0 0 0 0 0 0 0 0 0 0 0 0 0 0 0 0 0 0 0 0 0 0 0 0 0 0 0 0 0 0
0 0 0 0 0 0 0 0 0 0 0 0 0 0 0 0 0 0 0 0 0 0 0 0 0 0 0 0 0 0 0 0 0 0 0 0 0 0
0 0 0 0 0 0 0 0 0 0 0 0 0 0 0 0 0 0 0 0 0 0 0 0 0 0 0 0 0 0 0 0 0 0 0 0 0 0
0 0 0 0 0 0 0 0 0 0 0 0 0 0 0 0 0 0 0 0 0 0 0 0 0 0 0 0 0 0 0 0 0 0 0 0 0 0
0 0 0 0 0 0 0 0 0 0 0 0 0 0 0 0 0 0 0 0 0 0 0 0 0 0 0 0 0 0 0 0 0 0 0 0 0 0
0 0 0 0 0 0 0 0 0 0 0 0 0 0 0 0 0 0 0 0 0 0 0 0 0 0 0 0 0 0 0 0 0 0 0 0 0 0
0 0 0 0 0 0 0 0 0 0 0 0 0 0 0 0 0 0 0 0 0 0 0 0 0 0 0 0 0 0 0 0 0 0 0 0 0 0
0 0 0 0 0 0 0 0 0 0 0 0 0 0 0 0 0 0 0 0 0 0 0 0 0 0 0 0 0 0 0 0 0 0 0 0 0 0
0 0 0 0 0 0 0 0 0 0 0 0 0 0 0 0 0 0 0 0 0 0 0 0 0 0 0 0 0 0 0 0 0 0 0 0 0 0
0 0 0 0 0 0 0 0 0 0 0 0 0 0 0 0 0 0 0 0 0 0 0 0 0 0 0 0 0 0 0 0 0 0 0 0 0 0
0 0 0 0 0 0 0 0 0 0 0 0 0 0 0 0 0 0 0 0 0 0 0 0 0 0 0 0 0 0 0 0 0 0 0 0 0 0
0 0 0 0 0 0 0 0 0 0 0 0 0 0 0 0 0 0 0 0 0 0 0 0 0 0 0 0 0 0 0 0 0 0 0 0 0 0
0 0 0 0 0 0 0 0 0 0 0 0 0 0 0 0 0 0 0 0 0 0 0 0 0 0 0 0 0 0 0 0 0 0 0 0 0 0
0 0 0 0 0 0 0 0 0 0 0 0 0 0 0 0 0 0 0 0 0 0 0 0 0 0 0 0 0 0 0 0 0 0 0 0 0 0
0 0 0 0 0 0 0 0 0 0 0 0 0 0 0 0 0 0 0 0 0 0 0 0 0 0 0 0 0 0 0 0 0 0 0 0 0 0
0 0 0 0 0 0 0 0 0 0 0 0 0 0 0 0 0 0 0 0 0 0 0 0 0 0 0 0 0 0 0 0 0 0 0 0 0 0
0 0 0 0 0 0 0 0 0 0 0 0 0 0 0 0 0 0 0 0 0 0 0 0 0 0 0 0 0 0 0 0 0 0 0 0 0 0
0 0 0 0 0 0 0 0 0 0 0 0 0 0 0 0 0 0 0 0 0 0 0 0 0 0 0 0 0 0 0 0 0 0 0 0 0 0
0 0 0 0 0 0 0 0 0 0 0 0 0 0 0 0 0 0 0 0 0 0 0 0 0 0 0 0 0 0 0 0 0 0 0 0 0 0
0 0 0 0 0 0 0 0 0 0 0 0 0 0 0 0 0 0 0 0 0 0 0 0 0 0 0 0 0 0 0 0 0 0 0 0 0 0
0 0 0 0 0 0 0 0 0 0 0 0 0 0 0 0 0 0 0 0 0 0 0 0 0 0 0 0 0 0 0 0 0 0 0 0 0 0
0 0 0 0 0 0 0 0 0 0 0 0 0 0 0 0 0 0 0 0 0 0 0 0 0 0 0 0 0 0 0 0 0 0 0 0 0 0
Wind_Speed
8 8 6 5 5 5 4 2 2 2 1 3 2 3 4 3 5 4 4 7 8 8 9 9 9 9 10 10 11 11 12 12 12 13 13 14 14 15
6 8 7 5 5 5 5 4 3 2 1 1 2 3 4 4 6 5 5 9 9 10 10 9 9 9 10 10 11 11 11 11 12 12 13 13 14 14
6 7 7 5 5 5 4 4 4 2 1 1 2 3 3 5 6 5 5 5 5 10 11 10 9 9 9 10 10 10 10 10 10 10 11 12 12 13
6 6 6 4 5 4 4 4 3 2 1 2 2 3 3 4 5 6 5 5 5 9 10 10 9 8 8 8 8 8 8 8 8 8 9 10 11 12
5 5 4 4 4 3 3 3 2 2 1 1 2 2 3 3 4 4 5 4 6 6 7 7 8 9 8 8 8 7 6 6 6 6 7 8 10 10
4 4 3 3 3 3 3 3 2 2 2 2 2 3 3 3 3 3 5 5 5 4 5 7 7 8 8 8 7 6 6 5 5 6 7 7 8 9
5 4 3 4 5 3 3 3 2 2 2 2 2 2 3 3 3 3 4 6 4 2 4 4 4 4 5 6 6 7 6 6 6 6 6 7 7 8
4 4 4 4 6 7 7 6 3 2 2 2 2 3 4 4 3 3 3 4 4 2 4 5 3 4 4 4 6 7 7 7 7 7 7 7 7 8
3 4 4 4 6 6 7 8 6 5 5 3 3 4 4 3 4 5 4 3 4 4 3 4 3 4 4 4 7 7 8 8 8 7 7 7 8 8
3 3 3 5 5 7 6 7 6 5 4 3 5 7 7 7 5 4 4 5 6 3 2 3 3 4 4 3 5 7 8 8 8 8 7 8 8 8
4 4 4 5 8 8 5 6 7 5 4 5 7 8 9 9 5 2 3 3 4 2 0 2 3 4 3 3 4 6 8 8 8 8 8 8 9 8
4 4 5 7 9 7 3 3 5 6 7 8 6 6 4 4 1 2 2 2 2 3 1 2 3 3 4 3 3 4 5 6 8 8 8 8 9 6
4 4 5 10 10 7 3 2 5 6 5 5 5 5 5 4 3 2 2 3 2 3 2 2 2 2 2 4 4 4 4 4 5 5 6 7 8 7
3 4 5 10 8 7 5 5 5 3 2 3 4 4 4 5 5 5 3 3 5 5 4 2 2 2 3 3 4 5 5 4 4 4 5 5 6 7
3 6 7 7 6 5 8 9 6 4 4 4 4 4 4 5 5 4 3 2 2 2 2 2 3 2 2 3 4 4 5 4 4 5 5 4 4 5
3 5 6 7 7 6 6 6 5 4 3 3 4 4 4 4 3 3 3 4 3 3 2 1 1 2 2 3 3 4 4 4 4 5 4 3 3 4
3 3 5 5 6 6 5 5 5 6 5 5 4 5 5 5 4 3 3 2 3 4 4 3 2 2 3 3 3 3 4 3 3 4 4 4 3 4
3 3 3 4 4 5 5 5 5 6 6 5 5 5 5 5 4 3 3 3 3 3 3 3 4 3 1 2 4 3 3 3 3 3 3 3 4 4
4 3 3 3 3 4 4 4 5 5 5 5 5 5 5 4 4 4 4 3 4 4 3 3 2 3 4 5 3 4 3 4 4 3 2 2 3 4
3 2 2 3 3 4 4 4 5 6 5 5 5 5 5 4 4 4 4 4 4 4 4 3 2 2 2 3 4 3 4 4 3 4 3 3 3 4
2 2 2 3 3 3 4 4 5 5 6 5 5 6 5 4 4 5 4 5 3 3 4 4 4 5 3 3 4 4 3 4 5 4 4 4 4 3
1 2 2 3 3 4 4 5 5 5 6 5 5 5 5 4 5 6 5 4 4 3 4 4 4 2 1 2 3 5 5 4 3 6 8 6 4 4
1 2 2 3 3 4 4 5 6 5 5 5 5 5 5 5 5 5 5 4 4 4 4 4 4 3 2 2 3 4 5 5 4 4 3 3 8 11
Wind_Direction
64 63 60 47 46 46 50 60 101 80 19 344 336 337 342 339 344 341 331 326 326 322 318 312 309 306 304 305 304 300 298 295 292 291 292 292 293 294
64 65 58 48 47 44 46 46 54 97 77 314 306 309 321 335 340 336 319 322 320 318 314 309 307 307 307 307 305 302 302 302 299 297 296 296 297 298
59 64 59 53 52 43 44 47 43 50 66 318 296 304 308 321 330 329 319 315 311 311 311 310 309 309 308 308 309 308 306 306 305 303 303 302 303 303
59 61 55 56 52 43 43 43 38 36 42 333 312 311 303 311 318 319 322 323 316 308 310 312 314 317 318 316 315 314 313 314 314 316 316 313 311 310
62 64 57 57 47 35 35 31 21 24 23 321 308 302 298 312 323 319 323 320 320 317 316 322 325 326 325 324 326 324 326 326 325 325 323 321 318 316
54 55 54 53 44 23 21 12 6 6 356 333 310 304 299 306 311 323 330 331 325 326 328 325 326 329 332 334 334 339 342 340 332 324 319 317 317 316
43 35 30 42 39 23 10 351 349 339 332 327 319 314 313 318 324 321 315 321 311 323 321 321 328 333 341 342 343 349 351 348 339 330 325 322 319 317
32 12 7 24 14 12 6 357 334 292 297 296 298 305 299 295 297 310 316 326 317 333 322 310 323 327 339 345 349 354 358 353 347 342 337 331 325 320
27 10 4 3 3 353 348 348 340 312 258 237 268 279 285 289 305 306 304 300 290 306 318 299 316 322 337 345 352 360 359 356 353 350 346 340 333 328
16 3 352 345 351 348 338 337 332 321 293 256 254 271 273 278 265 268 294 296 283 269 258 290 314 318 323 325 343 355 355 354 354 352 351 349 343 337
4 360 353 344 338 346 343 337 334 332 324 304 280 278 281 283 265 239 272 302 318 317 290 294 310 314 308 307 329 345 347 349 352 354 355 357 351 341
349 352 358 349 339 344 337 330 330 326 335 339 338 336 328 331 311 228 255 284 307 306 313 304 314 329 320 311 318 334 343 342 344 348 353 359 357 350
348 346 341 341 345 353 349 294 285 299 313 323 328 338 345 350 354 330 242 234 262 277 294 307 307 320 308 305 312 324 340 339 342 345 351 356 357 356
337 329 326 339 357 12 16 358 346 347 346 350 352 347 342 338 332 326 304 248 241 259 282 271 276 299 314 314 316 326 332 340 343 340 343 348 356 355
321 325 346 7 17 23 22 20 21 20 12 5 348 330 314 306 309 322 336 333 292 260 268 235 237 263 268 298 313 323 324 327 339 339 341 351 355 353
355 354 12 28 35 26 17 16 18 12 5 348 328 318 319 331 347 351 346 348 348 341 356 9 269 247 278 289 298 317 323 315 327 337 335 337 348 356
352 19 24 18 17 11 4 3 5 8 7 353 343 339 341 348 351 346 343 341 345 334 332 341 332 270 249 269 304 320 326 321 322 329 332 340 353 0
63 45 27 18 14 5 357 352 355 360 353 344 342 344 342 342 342 348 346 342 335 325 322 326 336 340 325 230 220 286 314 316 319 324 326 333 348 2
61 44 28 13 4 358 355 348 343 340 337 342 344 344 341 339 345 348 350 344 337 325 320 324 329 340 343 339 321 209 265 308 315 317 326 314 318 333
42 36 20 6 359 355 351 345 338 342 349 348 347 346 346 340 344 347 348 341 330 322 323 327 326 311 296 308 307 292 236 263 300 314 321 304 284 280
25 23 10 359 353 349 344 340 338 340 345 343 344 344 343 339 339 341 338 338 339 330 328 330 323 303 268 269 285 301 293 240 245 275 308 315 320 327
14 9 0 356 351 347 343 341 340 344 347 346 341 338 336 333 335 336 335 335 332 324 309 311 326 331 333 328 321 315 318 324 270 244 242 248 290 317
1 354 352 352 351 346 343 342 341 339 342 338 334 332 332 331 329 329 329 329 328 335 335 334 345 353 352 340 326 319 327 334 336 334 329 261 247 259